Location: Newark
(16.3678°N, 77.8722°E)
Time: 10:27:56
(UTC+00:00)

S-56A Canister/Altair - Pass Details

Date: 15 December 2019
Orbit: 634 x 2498 km, 38.9° (Epoch: 19 January)

Event Time Altitude Azimuth Distance (km) Brightness Sun altitude
Rises 22:34:35 0° 177° (S) 3,829 11.3 -35.6°
Reaches altitude 10° 22:39:24 10° 146° (SE) 3,288 11.3 -34.5°
Maximum altitude 22:42:17 12° 125° (SE) 3,377 11.5 -33.8°
Drops below altitude 10° 22:45:30 10° 106° (ESE) 3,801 11.9 -33.1°
Sets 22:52:19 0° 79° (E) 5,309 12.7 -31.5°
